Theta_e
311 310 313 320 325 326 326 326 323 327 327 321 323 321 319 323 325 322 323 321 325 337 343 349 351 349 356 361 361 357 356 362 363 355 351 353 352 351 350 346 344 344 348 348 348 347 341 340 339 339 341 340 338 335 334 333 335 330 319 316 318 319 322 326 327 327 332 336 339 341 341 342 342 342 343 344 344 344 344 343 342 341 338 332 328 328 327 326 326 327 325 325 332 334 327 324 329
310 311 310 317 325 326 327 326 326 326 322 318 321 322 319 322 323 320 322 329 338 344 347 350 353 353 354 355 355 358 357 354 354 355 352 350 351 351 348 345 344 345 348 347 348 346 342 341 340 341 341 341 339 336 334 334 335 329 319 317 319 320 323 330 333 332 335 338 340 342 342 342 342 343 343 343 344 343 343 343 342 340 335 330 328 328 329 330 331 330 328 324 322 329 330 324 328
310 311 309 319 326 324 327 325 327 325 320 319 320 323 321 320 321 320 322 338 348 346 348 349 351 351 352 358 358 361 358 351 350 350 349 350 350 349 349 347 346 346 347 347 348 346 342 341 341 341 341 341 340 336 335 334 336 329 319 318 320 320 325 333 336 336 337 339 340 341 342 342 342 343 343 343 343 343 343 343 341 340 338 335 335 335 335 334 333 333 332 330 324 326 331 325 328
310 309 309 321 326 323 329 325 328 327 321 320 318 321 322 320 321 321 321 334 344 346 350 350 352 349 352 361 357 358 356 350 350 349 349 349 349 349 349 347 347 347 347 348 347 345 342 342 341 341 341 342 339 335 335 335 335 328 318 319 321 321 326 334 336 336 339 340 340 340 342 342 342 342 342 342 342 342 341 341 340 338 337 335 334 334 335 335 334 334 332 332 328 326 329 326 326
310 310 310 318 326 326 327 324 326 323 319 320 316 319 322 320 320 320 320 327 339 349 351 350 355 352 352 356 352 356 356 351 350 349 348 348 348 347 347 346 346 347 346 346 345 343 342 342 341 341 342 341 338 335 336 336 335 329 318 319 322 321 327 335 336 337 340 341 340 340 342 342 342 342 342 342 342 341 340 340 339 337 335 332 330 331 333 335 334 333 331 329 325 322 326 325 322
310 314 314 315 323 323 322 320 320 319 319 321 317 319 319 319 321 319 322 335 346 351 350 352 355 355 356 355 352 355 354 352 350 347 347 347 347 345 345 345 344 345 345 345 343 341 342 342 340 341 342 340 337 336 336 335 336 329 317 318 321 322 327 334 336 337 340 341 340 341 342 343 343 343 343 343 342 341 340 340 339 337 334 329 328 332 334 335 333 330 328 324 319 317 321 321 319
311 318 319 320 324 320 321 320 318 320 320 320 318 319 318 318 321 318 323 340 352 351 350 353 352 358 360 355 355 354 351 351 348 346 347 346 346 344 344 343 342 344 344 343 341 340 341 341 341 342 342 340 337 336 336 335 336 329 317 318 320 322 328 333 336 338 341 341 341 343 343 343 343 344 343 343 342 341 341 340 339 337 332 328 327 330 332 330 325 321 319 316 314 316 318 318 319
313 320 322 323 326 319 319 318 316 319 319 320 319 319 320 319 319 320 321 333 348 350 351 353 351 362 361 355 357 353 349 349 347 346 346 345 345 344 342 340 340 342 342 341 339 339 342 342 343 344 342 340 338 337 336 336 335 327 317 319 323 326 331 335 337 339 341 341 342 343 343 343 343 343 343 343 342 341 340 339 338 335 330 328 327 328 327 321 316 315 314 312 312 314 316 319 320
315 320 322 320 323 319 318 317 315 316 317 317 316 319 321 320 319 320 320 326 346 352 350 352 352 362 360 355 356 350 348 348 346 346 344 344 345 344 341 340 340 340 339 338 337 339 343 344 344 343 341 340 338 337 336 336 333 324 319 323 328 330 334 337 338 339 340 340 341 342 342 343 343 343 343 342 342 340 340 339 337 334 329 328 328 328 323 316 314 313 312 311 312 315 317 320 321
317 319 322 319 320 319 318 318 317 317 316 316 315 317 317 319 317 318 319 323 345 354 351 352 353 359 358 356 355 350 348 347 346 346 345 344 344 344 343 342 341 340 338 338 339 341 345 345 344 343 341 339 338 337 336 335 329 322 322 328 333 335 337 337 338 339 340 341 341 341 342 342 342 343 342 342 341 340 339 338 337 333 329 328 328 328 324 316 313 312 310 311 314 317 320 322 324
319 318 319 317 317 316 318 319 319 320 318 317 316 316 316 316 315 318 318 323 346 354 351 354 355 356 357 357 356 351 348 347 348 347 345 345 344 344 344 344 344 342 340 341 343 344 346 345 343 341 340 339 338 338 336 332 325 322 326 331 336 338 337 337 338 339 340 341 341 341 342 342 342 342 342 342 340 340 339 338 335 332 328 328 328 329 326 318 313 312 311 314 318 322 324 326 329
322 319 315 316 317 316 318 319 317 319 318 317 317 317 317 316 317 317 316 328 347 354 351 354 355 355 358 358 356 352 350 350 349 347 346 345 344 344 345 345 345 344 342 343 345 345 345 344 343 341 340 339 338 337 333 326 322 324 330 333 335 337 337 337 337 339 341 341 341 341 341 341 341 342 342 342 340 339 339 338 335 330 328 328 328 329 328 320 313 312 312 318 325 327 329 330 331
321 319 315 316 319 317 316 315 315 317 317 317 316 317 317 317 317 316 329 343 348 352 350 352 351 354 358 357 356 353 352 351 348 346 346 345 345 345 345 345 345 343 342 344 344 343 344 343 342 341 340 339 338 335 331 325 323 328 333 334 333 335 338 337 336 339 340 341 341 341 340 340 340 341 341 340 341 339 339 338 335 330 328 328 329 329 329 324 316 312 314 322 330 330 331 332 332
319 318 316 318 319 317 315 314 315 314 314 315 315 316 316 317 316 325 352 358 353 353 351 350 350 356 359 358 358 355 353 351 348 346 345 346 346 345 345 345 344 343 341 342 342 342 343 343 342 341 340 338 337 335 333 329 326 329 332 331 330 334 338 337 337 338 338 340 340 340 340 340 340 340 341 340 339 339 339 338 336 330 328 329 329 329 330 327 319 313 314 323 331 331 331 332 332
317 316 316 318 317 316 316 315 315 313 315 315 316 317 317 321 324 338 356 356 353 351 349 349 349 358 360 359 359 355 352 350 348 347 346 346 345 345 345 344 344 343 341 340 340 341 342 342 341 340 339 337 336 335 334 332 328 327 327 327 329 334 338 338 337 336 337 338 338 339 339 339 340 340 340 340 339 339 338 338 337 332 328 330 330 330 330 329 322 314 314 322 329 331 331 333 333
315 314 314 315 314 314 315 316 315 314 317 317 320 317 323 338 341 347 352 351 355 353 351 354 352 355 356 356 357 353 351 348 348 347 346 345 344 344 344 344 343 343 342 341 341 341 341 340 339 338 336 335 335 333 332 332 332 330 328 327 329 335 338 338 337 336 336 336 338 338 339 339 338 339 339 339 338 337 337 337 338 334 329 329 330 331 330 330 326 317 313 319 328 331 332 333 333
313 313 313 314 314 313 315 317 316 316 318 320 324 319 330 349 352 351 351 351 357 356 355 357 353 353 353 354 354 352 349 347 348 347 346 344 343 343 343 343 342 342 342 342 342 341 340 339 337 335 333 332 331 328 329 332 335 334 333 331 331 334 336 337 337 336 336 337 338 338 338 338 337 337 337 337 337 336 336 335 337 336 331 329 330 331 331 330 328 322 314 315 323 329 332 332 333
315 315 313 313 314 313 315 317 317 317 318 321 324 322 333 353 354 351 354 354 356 357 357 356 355 354 353 354 353 351 348 346 348 346 345 343 342 342 342 343 341 342 342 342 342 340 339 337 334 331 329 328 326 326 329 333 336 334 334 335 333 334 334 334 336 336 337 337 338 337 337 337 336 336 336 335 336 335 334 334 336 336 332 329 329 330 331 331 330 326 318 314 317 324 331 332 333
315 316 315 312 314 315 315 317 317 317 317 319 322 320 326 345 351 349 356 358 357 359 359 357 357 356 353 354 353 351 348 347 347 345 345 343 341 341 341 342 341 342 342 342 341 340 339 336 332 328 327 327 325 327 328 331 334 331 332 335 333 334 334 333 334 335 335 335 335 335 335 335 334 334 333 333 333 332 331 331 333 335 334 330 328 330 330 332 331 328 322 316 316 324 330 333 334
316 316 315 313 314 314 316 317 316 316 315 318 321 320 321 331 341 349 355 358 358 360 360 359 359 358 355 353 353 352 349 347 346 346 345 343 342 341 341 342 341 342 342 342 341 340 339 334 331 330 330 329 328 327 327 328 329 329 332 335 333 333 334 333 334 333 333 332 332 332 333 334 335 335 334 334 334 334 333 332 331 332 334 331 328 329 329 331 331 330 325 319 321 328 332 333 334
315 315 314 314 315 315 317 316 316 317 315 319 320 320 320 319 334 350 355 360 360 358 357 358 358 356 355 353 352 352 351 348 346 345 344 343 341 340 341 341 341 342 342 342 341 341 338 334 333 335 335 334 332 328 327 327 327 330 333 334 332 330 332 334 333 332 333 334 331 330 334 337 338 339 337 338 338 338 338 337 333 331 332 331 329 328 328 330 331 331 328 322 324 331 332 332 333
314 314 314 314 315 315 316 315 318 317 316 321 321 319 318 322 339 348 350 358 360 356 354 355 355 354 354 352 352 352 351 349 347 346 344 343 341 341 341 341 341 341 342 342 342 340 339 338 337 338 338 337 335 331 328 327 329 332 333 333 331 330 331 333 333 334 336 338 334 332 336 339 339 340 340 339 339 340 340 339 338 335 332 330 330 330 328 328 330 331 331 326 324 328 330 332 332
315 314 314 315 315 315 315 316 318 319 319 320 320 318 317 331 345 344 345 352 353 353 353 354 353 353 353 352 352 351 350 349 348 346 344 343 341 341 341 341 341 341 342 342 342 341 340 341 339 339 340 339 337 334 329 328 331 333 334 333 331 330 331 333 336 338 338 339 338 334 334 338 339 339 340 340 340 340 340 339 339 339 336 331 329 330 329 328 329 329 331 330 326 325 327 330 331
314 314 315 315 315 315 314 316 318 320 321 318 320 319 317 335 346 345 349 351 351 352 352 352 352 352 352 352 352 351 350 348 347 346 344 343 341 342 342 341 340 341 342 342 342 342 341 342 340 340 341 339 339 336 330 330 333 335 334 334 333 331 331 334 336 338 339 340 340 338 335 336 337 339 340 340 340 340 340 339 339 338 338 334 328 328 330 330 329 328 329 330 330 328 328 330 332
314 313 314 315 315 316 315 315 318 320 320 320 321 317 321 338 348 348 352 352 351 351 350 352 351 352 352 352 352 351 349 346 345 346 344 343 342 342 342 341 341 341 342 341 342 342 342 342 341 341 342 340 340 336 332 333 336 336 336 336 335 334 333 334 336 338 339 339 340 340 338 338 338 338 339 340 340 340 340 340 339 339 338 336 331 327 328 329 330 329 329 328 330 330 330 330 332
315 314 314 315 315 316 316 316 318 321 320 321 320 318 327 342 349 349 352 351 350 350 350 351 351 352 352 351 351 349 348 346 344 345 344 343 342 342 342 341 341 341 341 341 341 342 342 341 341 341 341 341 340 336 333 337 339 338 338 338 337 337 336 337 338 338 339 338 339 339 339 339 339 338 339 339 339 339 339 339 340 339 338 338 336 331 329 329 329 329 329 328 328 329 330 330 331
316 314 314 315 316 315 316 317 319 320 319 321 319 319 324 334 349 351 350 349 349 351 351 351 351 352 351 349 349 348 347 346 345 345 344 343 343 342 342 342 341 341 341 341 341 341 341 341 341 341 341 341 340 338 335 337 340 340 338 338 338 338 338 339 339 339 339 339 339 339 340 339 339 339 339 339 339 339 339 339 340 339 339 338 338 336 334 332 332 331 330 330 331 331 331 332 333
314 314 314 314 316 314 314 316 318 318 318 320 319 320 317 325 349 352 348 349 348 351 352 351 351 351 350 349 348 348 346 346 345 345 344 344 344 342 342 342 342 342 341 341 341 341 341 341 341 341 341 341 340 340 338 336 339 340 339 339 339 339 339 340 340 340 340 340 339 340 340 340 340 339 339 339 339 339 339 339 339 339 339 339 339 338 336 335 335 334 332 331 333 333 333 333 334
313 314 313 315 316 315 316 315 317 318 317 320 318 318 317 323 345 350 346 349 348 350 352 350 351 350 349 349 347 347 345 344 344 344 345 345 344 344 343 343 342 342 342 342 341 342 342 342 342 341 341 341 340 340 340 338 338 340 340 339 340 340 339 340 340 340 340 340 340 340 339 340 339 339 339 339 339 340 339 339 339 338 338 338 339 339 337 335 335 335 333 332 332 333 334 333 333
313 313 313 315 315 315 318 315 317 318 317 321 317 316 319 320 337 349 346 347 349 350 352 350 350 349 348 347 346 344 342 341 340 341 344 345 345 344 344 344 343 343 343 342 342 342 342 342 342 342 341 341 341 341 341 341 340 340 340 341 341 340 340 340 340 340 340 340 340 340 339 339 339 339 338 338 339 339 339 339 339 338 338 338 337 338 338 336 335 334 334 333 333 334 335 334 333
312 312 314 315 314 317 322 317 316 317 315 320 316 315 320 319 334 349 345 346 350 350 352 349 349 347 346 346 343 342 340 339 339 340 343 344 345 345 345 344 344 344 343 342 343 342 343 342 342 342 341 341 342 342 342 342 342 342 342 342 341 341 341 341 341 340 340 340 340 340 339 339 339 338 337 337 338 338 338 338 339 339 339 338 337 337 337 337 336 335 334 334 334 335 336 335 334
313 311 316 315 312 317 322 316 316 316 314 317 315 315 317 317 334 349 345 347 349 349 351 349 348 347 344 344 342 341 341 339 339 340 341 342 343 345 345 345 345 345 344 343 343 343 343 343 342 342 341 342 342 342 342 343 342 342 342 342 342 342 342 341 341 341 340 340 339 339 338 338 338 338 338 337 337 337 337 338 338 338 338 338 337 337 337 337 337 336 335 335 334 334 335 335 334
319 313 316 316 312 315 318 316 316 316 315 316 314 317 318 315 331 347 346 347 349 349 350 348 347 346 344 343 341 341 341 339 338 338 339 340 341 343 344 345 344 343 345 345 343 343 344 343 343 342 342 342 342 342 343 343 343 343 343 342 342 342 341 341 340 340 340 340 339 338 338 338 338 338 337 337 337 337 337 337 337 337 337 337 337 338 337 337 337 337 336 335 334 333 332 332 332
320 315 314 315 314 313 314 315 316 315 315 317 314 317 319 317 329 346 346 347 349 349 348 348 347 345 344 343 341 341 340 340 338 336 337 338 339 341 341 344 343 339 342 345 344 344 344 343 344 343 343 343 343 343 343 343 343 343 343 342 342 341 341 340 340 339 339 339 338 338 338 338 337 337 336 336 336 336 336 336 336 336 337 338 337 338 338 337 337 337 336 335 334 333 332 330 329
316 315 313 314 313 313 313 314 316 315 314 316 316 316 316 320 335 345 344 346 348 348 347 347 347 346 345 343 342 341 340 339 338 336 337 337 338 339 339 342 343 339 340 345 345 344 344 344 344 344 344 344 344 343 343 342 342 342 342 342 341 341 340 340 339 339 339 339 338 338 337 337 336 336 335 336 336 335 335 335 335 335 336 337 338 338 338 337 337 337 336 336 335 334 332 330 329
314 315 314 313 311 311 313 313 315 315 314 315 316 317 315 322 339 345 342 345 345 345 348 347 347 346 345 344 342 341 340 339 338 336 337 336 337 339 339 339 341 341 343 345 344 343 343 343 344 343 343 343 343 343 342 341 341 341 341 341 340 340 340 339 339 339 339 338 338 338 337 337 336 336 336 336 336 336 336 335 335 335 335 335 336 336 336 336 336 336 335 336 335 334 333 331 331
313 313 313 312 311 311 313 313 315 314 314 315 315 318 316 319 335 343 341 341 342 346 349 348 347 347 345 345 343 341 340 338 336 336 336 335 336 338 338 338 339 342 344 343 343 343 343 343 343 342 342 342 341 341 341 341 341 341 341 341 340 340 340 340 340 340 339 339 339 339 338 337 337 337 336 336 336 336 336 336 335 335 335 335 334 334 334 335 335 336 335 335 335 334 334 333 332
312 311 311 311 310 311 312 313 314 314 314 315 315 317 316 317 328 340 340 338 342 347 349 348 347 346 345 344 343 341 339 336 335 335 334 334 334 336 337 339 339 341 341 341 342 342 342 343 342 342 342 342 341 341 341 341 341 341 341 340 340 340 340 339 340 340 339 340 340 339 338 337 337 336 336 335 335 335 335 335 335 335 335 335 334 334 334 335 335 335 335 335 335 334 334 334 333
313 311 311 311 311 311 313 315 314 314 313 315 317 315 316 317 323 334 338 337 342 346 348 348 346 346 345 344 343 340 339 338 336 336 335 334 334 335 337 337 337 339 337 336 340 341 341 342 342 342 342 341 341 341 340 340 340 340 340 340 339 339 339 338 339 339 339 338 339 339 338 337 337 336 335 335 335 335 335 335 335 335 335 335 335 334 334 334 335 335 335 335 335 334 333 333 333
314 313 312 311 311 310 313 318 316 314 314 317 318 315 316 317 321 332 336 336 340 343 345 346 344 345 344 342 341 339 339 339 338 337 336 335 335 336 337 335 335 336 334 332 336 340 341 340 340 340 340 340 339 339 339 339 339 339 339 338 337 336 337 337 337 338 338 337 337 337 337 337 337 336 336 336 336 336 335 335 335 335 335 335 335 335 334 334 334 335 335 335 335 334 334 333 333
313 313 312 310 311 311 313 317 317 314 315 320 318 312 316 321 325 333 338 339 341 342 344 345 343 343 341 340 340 339 339 340 340 340 338 338 337 336 335 333 332 333 332 331 333 339 341 339 339 340 340 339 338 338 338 338 337 336 336 336 336 336 337 337 337 337 338 338 337 337 337 337 336 336 335 336 336 336 335 335 335 335 335 336 336 335 335 334 333 334 334 335 334 334 334 333 333
313 313 312 310 312 312 313 316 316 312 312 318 316 311 315 323 329 337 343 344 344 342 343 344 343 342 342 343 342 340 341 340 340 340 340 340 338 335 333 333 334 332 332 332 333 338 340 339 338 339 339 339 339 338 338 337 336 336 336 336 336 336 336 337 338 338 338 337 337 336 337 336 336 336 336 335 336 335 335 335 335 335 335 336 337 336 335 334 334 334 334 334 334 334 334 334 333
312 314 314 311 311 313 315 314 313 313 312 316 316 314 316 321 330 341 344 344 344 342 343 343 343 343 343 343 342 341 341 340 340 340 340 340 339 337 335 334 334 332 332 333 336 339 340 339 339 339 339 339 339 339 339 338 338 338 338 338 338 337 337 337 337 336 335 334 334 335 334 334 335 335 335 335 335 335 335 335 335 334 334 335 336 335 335 336 335 334 334 334 334 334 334 334 334
311 316 316 314 313 314 315 313 314 317 317 317 315 317 320 320 330 342 343 344 344 342 343 343 342 342 342 341 340 340 340 339 340 339 339 339 339 338 337 336 334 333 334 335 336 337 338 339 339 339 339 339 339 339 339 339 338 338 338 338 338 337 336 335 334 333 333 334 334 334 334 334 334 334 335 335 335 335 334 334 334 334 334 334 334 333 334 335 335 335 334 334 334 334 334 334 334
311 313 315 316 315 315 316 314 317 319 316 316 314 316 318 317 328 341 342 345 345 343 343 342 341 341 341 340 338 338 339 338 339 339 339 338 337 337 337 336 336 335 336 336 334 334 335 337 337 337 337 337 337 337 337 337 336 336 337 336 336 335 335 334 334 334 333 333 333 333 333 333 333 333 334 334 334 334 334 334 333 333 333 333 333 333 332 333 334 335 335 335 334 334 334 334 334
311 312 315 315 314 317 317 315 317 317 316 316 315 316 316 316 331 344 344 346 344 343 342 340 340 339 339 339 337 338 339 339 338 338 338 337 336 337 336 336 336 336 336 335 335 334 335 335 334 333 333 333 333 333 334 334 334 335 334 334 334 334 334 334 334 333 332 332 332 332 332 332 332 332 332 332 333 333 333 333 333 333 333 333 333 332 332 331 332 332 333 334 334 334 334 334 334
311 313 314 312 315 319 317 320 322 317 318 319 314 316 317 318 332 343 344 344 342 341 342 341 340 339 339 338 338 340 340 339 337 336 336 336 335 335 335 334 334 334 334 333 333 332 332 332 331 330 330 331 331 332 332 332 332 333 333 333 333 332 333 333 332 332 332 332 332 331 331 331 331 331 330 330 330 331 332 332 333 333 333 333 332 332 331 331 331 330 330 331 333 333 333 334 333
311 313 312 312 320 320 312 317 320 315 319 323 316 314 314 316 327 339 344 343 340 340 342 341 340 340 339 339 339 340 338 336 335 334 334 333 333 332 332 332 331 332 332 331 331 330 329 329 329 329 329 329 330 330 330 330 330 331 330 331 331 331 331 332 331 331 331 332 331 330 331 331 331 330 329 328 328 329 329 330 331 331 332 332 332 332 331 331 330 330 329 330 331 331 332 332 331
310 312 313 313 318 317 311 316 320 319 322 325 322 314 310 317 329 339 344 342 339 341 341 340 341 340 339 339 340 338 335 335 334 333 333 331 331 331 330 330 330 330 330 329 329 328 328 328 327 327 327 327 327 328 328 328 329 329 328 329 329 329 330 330 330 330 331 332 331 330 330 330 330 329 328 328 328 329 329 329 329 329 330 331 331 331 330 330 329 329 329 329 329 329 330 330 330
310 311 314 315 316 315 314 318 321 321 320 320 319 311 314 330 338 340 343 341 340 343 341 340 339 339 339 338 337 335 333 333 332 331 331 330 330 330 329 329 329 328 328 328 328 327 327 327 326 326 326 326 326 326 326 326 326 326 326 326 327 328 328 328 329 330 331 331 331 330 330 330 329 329 329 329 329 329 329 329 329 329 329 329 330 330 329 329 328 329 329 329 329 329 329 330 329
310 312 317 317 320 321 318 319 320 319 318 319 319 317 326 342 343 339 340 340 341 342 339 338 337 336 337 335 334 333 332 331 330 330 330 329 329 329 328 328 328 327 327 327 326 326 326 326 326 325 325 325 325 325 325 325 325 325 325 325 326 327 327 328 329 330 330 330 330 329 329 329 329 328 329 329 329 329 329 329 329 329 329 329 329 328 327 327 328 328 329 329 329 329 329 329 329
310 314 316 314 321 326 320 324 330 328 322 321 329 335 337 342 340 337 339 340 340 339 338 338 338 335 334 333 332 332 330 329 329 328 328 327 327 327 327 327 326 326 326 325 325 325 325 325 325 325 324 324 324 324 325 325 324 324 324 324 325 326 327 328 329 329 329 329 329 328 329 328 328 328 329 329 329 329 329 329 329 328 328 328 328 328 327 328 328 329 328 328 328 329 329 329 329
314 312 313 312 318 324 320 319 324 328 324 322 333 344 343 341 341 338 338 339 339 339 338 337 336 334 333 332 332 330 329 328 327 327 327 326 326 326 326 326 325 324 324 324 324 324 324 325 324 324 323 323 324 324 324 323 323 323 324 325 326 327 328 329 329 329 328 328 328 328 328 328 328 328 328 329 329 329 329 329 328 328 328 329 329 328 328 329 329 329 328 328 328 328 329 330 330
316 310 312 314 313 321 329 325 319 323 328 329 336 346 345 345 344 339 338 339 339 338 337 336 334 333 333 331 329 329 328 327 326 326 325 325 325 324 324 324 323 323 323 323 323 323 323 324 324 324 323 323 323 322 322 322 323 324 325 326 327 328 328 328 328 328 328 328 327 327 327 327 327 328 328 328 329 329 329 329 329 329 329 329 329 329 329 329 329 328 328 328 329 329 329 330 330
315 312 315 317 316 319 325 324 320 319 326 335 341 343 344 344 341 339 340 339 338 337 336 335 334 332 331 330 328 327 326 326 325 325 324 324 323 323 323 323 322 322 322 322 323 322 323 323 323 323 322 322 321 321 322 323 323 324 325 326 326 327 327 326 326 326 326 326 326 326 326 326 327 327 327 328 328 329 329 329 329 329 328 328 329 329 329 329 329 329 328 328 329 329 329 329 330
314 315 313 317 323 322 317 318 321 318 323 336 343 342 343 342 337 338 340 338 337 336 334 334 332 331 329 328 327 326 325 325 324 323 323 323 322 322 322 322 321 321 321 322 322 322 322 323 322 322 321 321 321 322 323 323 322 322 323 324 324 324 324 324 324 324 324 324 324 325 325 325 326 327 327 327 327 328 328 328 328 328 328 328 328 329 329 328 329 329 328 328 329 329 328 328 329
314 315 315 314 314 315 316 318 319 319 325 336 341 342 342 338 337 338 338 336 335 334 333 332 330 329 328 327 326 325 324 323 323 322 322 321 321 321 321 321 321 321 321 321 321 321 322 322 321 321 320 320 321 322 322 321 320 320 320 321 321 321 321 321 322 322 322 323 323 324 324 325 326 326 326 326 326 326 326 327 327 327 328 327 327 328 328 328 328 328 328 328 328 328 327 327 328
317 317 318 317 315 315 315 317 320 322 327 333 337 341 340 335 335 337 336 334 332 331 331 330 329 328 327 326 325 324 323 323 322 322 322 321 321 321 321 322 321 321 321 320 321 321 322 322 321 320 321 321 321 321 320 319 318 319 319 319 319 319 318 318 319 320 320 321 322 323 324 324 324 325 325 324 324 324 325 325 326 326 327 328 328 327 327 327 327 327 327 327 327 327 327 327 327
Wind_Speed
12 13 9 8 11 10 6 2 1 3 2 1 2 3 4 2 4 6 10 9 1 3 4 4 5 5 5 9 12 10 9 2 3 4 3 3 15 24 21 26 32 28 28 26 23 21 19 19 18 18 18 17 16 15 14 13 12 14 15 16 18 22 23 23 22 22 22 21 20 19 19 20 20 20 19 19 18 17 17 16 16 15 14 13 12 12 12 11 11 10 9 9 10 14 17 15 13
12 13 10 9 9 4 2 2 2 2 2 1 3 4 3 3 6 7 8 5 5 3 3 9 10 11 10 11 9 10 12 7 6 6 5 15 22 21 25 30 31 30 28 25 24 22 20 19 19 19 18 18 16 15 14 13 13 14 15 16 19 23 24 23 22 21 21 20 20 20 19 19 19 19 19 18 18 17 16 16 15 14 13 13 12 12 11 10 9 9 8 8 9 14 16 14 13
13 12 10 7 4 2 1 2 2 2 3 3 5 4 1 3 8 9 5 2 8 9 7 8 8 6 6 8 7 7 6 6 11 10 9 19 19 17 27 29 29 30 27 25 24 22 22 20 19 19 18 18 16 16 14 13 13 13 15 16 19 23 24 24 21 20 19 19 19 19 19 19 19 19 19 18 18 17 16 15 14 13 12 12 11 11 11 10 9 9 8 7 8 14 16 14 13
11 10 8 4 2 3 3 1 3 4 4 4 5 4 2 3 8 10 4 6 7 7 5 4 5 4 8 12 6 6 8 5 8 10 8 14 18 22 28 28 28 27 25 25 23 23 22 20 20 19 19 18 17 16 15 13 12 13 15 16 19 23 24 23 22 20 18 18 18 19 19 19 18 18 18 18 17 16 15 14 13 12 11 10 10 11 11 10 9 8 7 7 7 14 16 13 13
10 8 5 2 3 0 2 1 2 4 5 4 4 3 5 6 8 11 6 5 6 3 4 4 3 3 8 8 1 3 8 7 7 11 11 16 27 29 28 29 29 26 25 23 23 24 22 21 21 20 19 18 18 17 15 13 12 13 14 17 19 23 25 23 21 20 17 16 17 18 18 18 18 17 17 16 16 15 14 12 11 11 10 9 9 11 11 10 8 7 7 6 8 14 16 14 13
8 6 2 1 1 1 1 1 3 3 5 5 4 3 5 6 8 11 5 4 1 3 5 6 7 6 7 5 4 4 7 10 9 11 18 24 30 31 29 30 28 27 25 24 24 24 22 22 21 20 19 19 19 17 15 13 12 12 14 17 19 22 24 23 21 19 16 16 16 17 17 17 16 16 16 15 14 14 12 11 10 9 9 8 9 11 10 9 7 6 7 8 10 15 17 15 13
5 4 2 1 1 0 2 3 4 4 5 6 6 7 5 6 8 9 4 4 4 4 6 8 11 11 6 3 5 7 9 14 12 15 25 31 32 31 30 29 28 27 26 26 25 24 23 22 21 21 20 20 19 17 15 13 11 12 15 18 20 22 23 21 20 18 16 15 16 16 16 15 15 15 14 14 13 13 11 10 9 8 8 8 9 10 9 8 7 7 8 11 14 16 17 15 13
3 1 1 2 1 1 2 3 5 4 5 5 7 11 8 7 9 7 6 3 2 2 8 8 10 12 6 5 4 8 16 20 21 26 33 34 33 31 29 29 28 26 26 27 26 25 23 22 21 21 21 20 18 17 14 13 12 12 15 19 21 21 20 18 18 17 16 16 16 15 15 15 15 14 13 12 12 11 10 9 8 7 7 8 8 8 8 10 10 10 11 13 16 17 17 16 14
2 1 1 2 1 1 1 3 4 4 6 8 8 12 8 7 10 6 6 1 6 5 7 5 6 12 7 10 9 7 16 26 31 32 33 33 32 30 29 29 28 27 26 27 26 25 23 22 22 21 21 19 18 16 14 13 12 14 17 20 21 19 17 16 17 18 16 15 15 15 15 15 14 14 13 11 11 11 10 8 7 6 6 7 7 8 9 12 12 11 12 15 18 18 17 16 14
2 1 1 1 2 1 4 3 4 5 7 8 8 13 9 7 10 9 7 1 9 7 6 6 10 14 11 11 8 6 16 28 32 28 30 33 32 30 28 26 25 27 27 26 25 24 23 21 21 21 20 19 17 15 13 13 13 16 19 21 20 18 16 16 17 18 17 15 15 15 15 14 14 13 12 10 10 10 9 8 6 5 5 6 6 8 10 12 12 12 14 17 19 19 17 15 13
2 1 2 1 1 2 4 4 6 6 7 6 7 12 10 9 9 11 9 3 10 12 11 10 13 14 13 8 5 10 21 27 26 25 29 33 31 29 28 26 23 24 26 26 24 24 23 21 21 20 19 18 16 14 13 13 14 17 19 21 20 17 17 17 18 18 17 15 14 14 14 14 13 12 11 9 9 9 7 6 5 5 4 5 6 7 9 10 11 12 15 19 19 19 17 15 13
1 2 2 2 2 4 4 4 6 7 8 7 9 10 8 10 10 13 10 4 11 13 9 7 10 11 12 6 4 12 20 21 23 27 31 32 29 28 27 27 23 21 24 25 24 23 22 21 20 19 18 16 14 12 13 14 15 16 19 20 18 18 18 18 19 18 16 15 13 13 12 13 12 12 11 9 9 8 6 5 4 4 4 4 5 6 7 9 10 12 16 20 20 18 16 14 12
2 2 3 2 3 3 4 4 5 5 7 7 9 9 7 10 12 13 5 7 9 9 3 9 15 9 10 7 6 10 14 18 25 30 32 30 28 28 27 25 23 21 23 25 24 23 22 21 20 18 16 15 13 12 13 14 15 15 18 18 16 18 18 17 18 18 17 15 14 12 12 12 12 11 10 9 8 7 6 4 4 4 4 4 5 6 6 8 9 11 16 19 19 17 15 13 10
3 2 4 1 2 1 4 3 4 3 6 9 9 10 8 9 11 9 10 11 5 5 5 11 15 12 11 8 7 7 10 20 28 30 30 28 27 26 26 25 23 21 22 24 24 23 22 21 20 18 16 15 13 13 13 13 14 15 16 16 15 18 19 17 16 17 16 16 14 13 13 12 11 10 9 9 7 7 5 4 3 5 5 5 5 5 6 7 8 10 14 18 19 17 15 12 9
5 2 3 1 2 2 4 3 4 3 6 10 8 7 3 2 4 8 12 12 5 4 9 8 6 10 11 10 9 9 14 25 29 31 30 27 26 25 25 24 22 22 23 23 23 23 22 21 20 18 17 16 14 14 14 13 14 15 15 14 15 18 19 18 17 16 16 16 15 15 14 12 10 9 8 7 6 5 5 4 4 5 6 5 5 5 5 6 7 9 12 16 18 17 14 11 9
4 2 1 1 2 4 4 3 3 3 7 9 8 4 5 8 6 6 3 11 7 2 7 3 2 6 12 9 13 18 23 31 31 31 29 26 24 25 24 23 22 22 22 23 22 22 22 21 19 18 18 17 15 14 14 13 13 13 13 13 15 18 19 18 17 16 16 14 13 13 12 11 10 9 8 7 6 5 4 4 4 6 7 6 6 5 5 5 6 8 11 14 17 17 14 12 10
1 2 2 2 4 6 3 3 4 4 7 7 8 5 8 6 6 6 5 12 12 7 9 5 5 8 11 10 21 28 30 33 32 30 27 24 22 23 22 21 21 21 21 22 22 22 21 20 19 18 18 16 15 15 15 14 13 12 13 13 15 17 19 18 16 15 14 12 11 12 12 11 9 8 7 7 6 5 5 5 6 6 8 7 6 5 5 5 6 7 9 13 16 17 15 13 10
2 3 3 4 6 6 3 3 5 3 7 7 8 4 9 7 5 6 7 13 14 13 12 13 14 12 15 22 29 30 31 33 30 28 23 19 19 19 19 19 21 20 20 20 20 21 20 20 19 18 17 16 15 15 15 16 14 14 14 14 15 16 16 16 14 13 13 11 10 10 11 11 8 7 7 7 7 6 6 6 7 7 9 9 7 6 5 5 5 6 8 10 14 16 16 14 11
4 3 3 6 5 4 2 3 7 5 7 9 9 4 5 8 8 6 5 9 14 16 11 15 18 14 17 23 28 28 28 27 26 25 20 18 18 18 17 17 19 19 20 20 20 20 19 19 18 17 17 16 15 15 16 16 16 15 15 15 15 15 14 13 13 12 11 9 9 9 9 9 7 6 5 5 5 5 4 5 7 8 10 11 10 8 6 6 6 7 8 10 13 16 17 15 12
4 4 4 7 2 3 4 4 8 8 9 9 9 6 3 4 4 5 8 9 12 16 13 15 17 16 17 17 22 26 24 21 21 22 19 17 18 19 19 18 19 19 20 21 21 20 19 19 18 17 17 17 16 16 16 16 16 15 15 15 14 14 13 12 11 9 8 6 7 8 8 8 7 6 5 5 5 5 3 2 5 8 11 12 12 10 8 7 7 7 8 10 14 18 18 15 13
3 5 6 5 1 4 6 5 9 11 10 7 6 6 6 2 2 8 14 10 5 10 14 19 21 21 21 17 18 22 20 17 16 17 17 17 17 18 19 20 21 20 20 21 22 21 20 19 18 18 17 17 16 17 17 17 16 15 15 15 13 13 12 11 10 9 8 6 6 8 9 8 6 5 6 6 7 7 5 4 4 6 10 13 14 12 10 9 8 9 8 11 15 19 18 16 14
3 5 5 5 4 6 7 5 8 11 7 3 3 6 6 4 5 9 12 10 5 7 11 19 23 22 23 20 18 18 17 15 14 14 14 16 17 17 18 20 22 20 20 21 21 21 21 20 19 19 18 16 15 17 18 17 17 16 15 15 13 13 12 12 11 11 9 7 7 9 9 9 7 7 7 8 9 10 8 7 6 6 8 11 14 14 13 11 10 10 10 11 15 18 17 16 14
4 6 4 7 8 7 7 4 7 8 2 3 4 3 3 4 6 3 4 7 7 9 11 16 18 19 22 20 17 15 14 13 13 13 14 16 18 19 19 20 23 23 21 21 21 21 21 20 20 20 19 17 16 16 17 17 17 16 15 14 13 13 13 13 12 11 9 8 8 10 11 10 10 10 9 10 11 11 10 10 9 7 7 9 13 15 15 13 11 11 11 11 13 16 17 16 14
6 7 5 7 9 8 9 6 7 10 5 4 3 4 4 4 5 2 7 10 12 13 13 16 16 18 20 17 15 14 13 13 12 14 14 16 19 20 20 20 23 24 22 20 20 21 21 21 21 20 19 18 16 16 17 17 17 15 15 14 13 13 13 14 12 11 11 11 10 10 11 11 11 12 12 11 12 13 12 12 10 9 8 7 10 14 16 15 14 13 12 13 14 16 17 16 14
7 9 8 6 6 8 9 7 8 9 6 7 3 6 4 5 7 6 9 13 16 17 15 15 16 16 16 15 16 14 12 12 12 12 12 14 19 20 19 20 22 24 23 21 20 21 21 22 21 21 20 18 17 16 16 16 16 15 15 14 13 13 13 13 12 12 13 14 13 13 13 12 12 13 14 14 13 14 14 14 12 11 10 8 9 12 15 16 16 15 15 15 15 16 17 17 16
6 9 9 7 7 8 7 6 8 7 3 5 6 4 5 7 9 7 7 14 16 17 16 15 15 14 12 12 13 13 13 13 12 13 14 16 19 19 17 18 20 22 23 22 21 21 21 22 22 21 20 18 17 16 15 16 16 15 15 14 13 13 13 12 11 13 14 15 16 16 15 15 15 15 16 16 16 16 16 17 16 13 12 11 10 11 13 14 15 16 17 17 16 17 18 18 16
5 6 7 8 9 8 4 5 7 6 1 2 5 1 6 5 5 5 5 12 16 16 16 14 14 12 11 11 11 12 13 14 16 15 14 14 15 16 16 17 18 20 22 22 22 21 20 22 22 21 20 18 17 15 14 15 16 16 15 14 13 13 13 12 12 13 15 16 16 16 17 17 18 18 18 18 18 17 17 19 19 17 16 15 15 14 13 13 14 16 18 19 18 18 18 18 16
6 6 6 8 8 7 3 4 7 4 1 3 2 5 2 4 5 9 10 12 15 17 16 14 13 12 12 12 10 10 10 13 17 15 14 13 15 18 19 19 20 20 22 23 22 21 20 20 21 21 20 18 17 15 14 15 15 16 16 16 15 14 14 14 14 15 15 16 16 16 17 17 18 19 19 19 19 18 17 18 20 20 20 20 19 18 16 16 16 17 19 20 20 21 21 20 17
6 6 4 7 6 6 6 5 5 4 4 5 4 6 5 3 9 15 14 12 13 16 16 13 13 13 13 12 10 8 9 12 14 14 15 16 18 21 21 21 21 20 21 21 22 20 19 19 20 19 19 17 16 15 15 15 14 15 15 16 16 16 17 16 15 15 15 15 16 16 17 17 17 18 18 18 19 18 18 17 18 20 20 21 22 21 19 18 19 20 21 21 21 22 24 24 21
7 4 3 3 5 5 7 4 6 6 5 5 6 2 7 1 10 16 15 15 15 15 14 12 12 12 12 11 10 8 8 10 11 13 16 18 19 18 18 18 19 19 19 19 20 19 18 18 18 18 19 17 15 14 14 14 14 13 13 14 15 16 17 17 16 16 16 15 15 16 16 16 16 15 15 16 17 18 18 17 18 19 18 18 20 22 21 20 21 22 22 20 20 21 24 25 23
5 4 0 0 1 5 7 2 8 6 5 6 7 3 7 3 9 16 15 17 17 15 13 13 12 11 11 10 11 9 7 8 11 14 17 19 19 17 16 17 17 18 18 19 19 19 17 16 16 17 18 16 15 15 14 13 13 13 13 13 14 15 15 16 15 15 15 15 15 15 14 15 14 14 14 15 16 16 17 18 19 19 19 19 19 20 22 21 21 23 23 20 18 19 20 20 19
2 1 4 1 2 4 8 3 7 6 4 7 8 4 6 4 10 15 14 16 17 16 14 13 13 12 11 10 10 9 7 9 12 15 16 18 18 18 17 16 16 17 18 19 19 19 17 16 16 16 17 17 16 16 14 13 12 12 12 12 12 12 13 14 14 14 15 15 15 14 13 13 13 13 14 15 16 16 17 18 18 18 19 20 20 19 20 22 21 22 23 20 16 15 16 18 19
3 2 3 1 3 3 4 5 4 8 4 4 6 5 4 3 10 14 14 16 16 16 14 14 14 13 12 10 9 9 8 8 9 10 13 14 15 16 17 17 15 14 17 19 19 20 18 16 16 15 16 16 16 16 15 13 13 12 11 11 12 12 13 13 14 14 15 14 13 12 12 12 12 13 13 15 16 17 18 17 16 15 15 18 19 18 18 20 21 20 22 21 18 14 13 16 18
4 0 2 2 3 3 2 5 4 6 6 4 5 6 4 3 12 14 13 15 16 16 15 15 13 12 12 11 10 10 9 8 6 9 14 14 13 15 17 20 18 13 15 18 18 18 17 16 15 15 16 16 15 15 14 13 12 11 11 11 12 13 13 13 14 14 13 12 11 11 12 13 13 14 14 15 16 18 19 18 17 15 15 17 18 18 18 19 20 20 21 21 21 19 14 14 18
3 2 1 3 2 2 4 4 4 5 7 7 4 6 7 5 13 15 14 15 16 17 16 14 13 13 12 11 11 10 10 8 8 12 16 16 16 18 19 22 23 18 18 19 18 17 16 16 16 15 14 15 15 15 13 12 11 10 10 10 11 12 12 12 11 12 11 10 10 10 11 13 13 15 15 16 17 17 18 18 18 17 16 16 18 19 20 20 20 20 21 21 22 23 19 17 18
6 4 3 4 4 4 4 4 6 5 6 8 6 7 8 7 13 15 13 13 14 16 14 13 12 12 12 11 10 10 10 8 9 15 16 17 20 21 21 21 22 22 21 20 19 18 17 17 17 15 13 13 13 14 13 11 10 10 9 9 9 9 9 9 9 10 10 9 9 10 11 13 13 15 16 17 18 18 18 18 18 18 17 17 18 20 21 22 22 21 21 21 21 20 20 19 17
5 3 2 4 4 5 5 4 8 6 6 8 8 9 8 7 12 14 11 8 10 14 14 13 12 11 11 11 11 10 8 7 9 13 15 17 18 20 21 18 16 19 22 21 20 19 19 18 17 15 13 12 12 13 13 11 10 10 9 9 8 7 8 9 10 10 10 9 9 10 11 12 14 15 16 17 18 19 20 19 19 19 18 18 19 21 22 23 23 23 22 21 20 18 18 17 15
4 2 2 4 4 5 6 5 8 6 6 8 7 8 9 6 11 14 12 7 9 14 15 15 13 12 11 12 12 9 7 5 7 10 11 13 15 16 18 15 11 13 16 19 20 19 18 17 16 14 12 11 11 10 9 9 8 7 6 6 5 6 8 9 10 10 9 9 9 11 13 14 16 17 17 17 17 18 19 20 20 21 21 21 21 22 23 23 24 24 23 22 21 20 20 18 16
5 2 2 4 3 3 6 6 7 6 6 7 7 8 10 6 9 13 16 12 10 14 17 17 16 14 13 12 12 10 9 7 6 7 8 11 13 14 14 12 10 11 10 10 15 18 18 16 14 13 11 10 9 8 8 7 6 4 4 3 3 6 8 9 10 10 9 9 9 12 14 14 16 18 18 17 18 19 20 21 21 22 23 23 24 24 24 24 25 25 25 24 22 20 20 20 19
4 3 3 5 4 1 4 6 6 8 7 4 7 8 8 2 6 9 15 16 12 11 11 12 12 14 14 13 12 11 12 11 8 8 8 11 14 13 12 10 10 15 13 8 12 17 17 14 13 13 11 9 8 7 6 5 4 4 4 4 4 5 6 7 9 9 10 10 10 14 16 15 16 17 18 19 20 21 21 22 23 24 25 25 25 25 25 26 26 26 25 25 22 19 19 20 20
5 5 6 8 6 4 5 5 6 6 5 2 7 4 6 1 7 8 8 11 11 8 8 9 7 10 13 12 11 11 12 11 11 10 9 10 14 13 12 11 11 16 16 12 13 16 16 13 13 12 10 8 6 4 4 2 2 3 4 4 4 5 5 6 7 9 10 10 10 13 14 15 15 16 18 20 21 21 22 23 24 26 28 28 28 28 28 27 27 27 26 25 24 22 20 19 18
5 6 11 12 7 5 6 5 5 3 5 3 6 5 6 3 7 10 6 7 9 8 9 10 9 10 11 10 10 9 9 9 10 9 9 11 15 16 14 12 12 14 14 13 13 14 16 14 13 11 9 7 4 3 2 1 1 1 2 2 2 4 6 7 8 9 10 9 10 11 11 11 12 13 15 16 18 20 22 24 25 26 28 29 29 29 29 29 28 28 27 25 25 25 23 19 17
4 6 11 11 7 6 7 6 3 2 5 5 6 7 3 2 4 11 11 11 10 9 9 10 10 9 9 8 9 9 9 8 8 8 8 11 15 17 16 16 16 16 15 14 13 15 15 13 12 11 9 7 6 4 3 2 3 3 4 5 5 4 5 7 8 8 10 9 9 10 11 10 11 12 13 14 16 18 21 23 25 26 27 29 29 28 29 30 30 29 28 27 27 26 23 21 20
6 6 7 7 7 8 8 7 5 5 3 2 4 6 3 0 4 9 14 15 12 10 10 9 9 9 8 8 9 11 10 9 9 8 8 10 14 16 17 18 19 17 16 16 16 16 15 13 12 10 9 8 6 5 4 3 3 2 2 2 2 3 4 5 7 8 9 9 9 10 11 12 12 12 13 14 15 16 18 20 22 23 25 28 28 27 28 29 29 30 30 29 28 27 25 24 24
9 7 6 6 8 8 7 7 6 4 0 3 6 4 4 1 3 5 11 14 13 12 12 12 10 10 9 9 10 10 9 8 9 8 9 11 15 17 18 19 19 18 17 16 15 14 12 11 11 12 13 12 11 9 7 5 4 3 3 3 3 3 4 6 7 8 9 9 9 9 10 11 12 13 13 13 15 16 18 19 21 23 24 25 26 27 28 28 29 31 31 30 29 29 28 28 28
8 6 5 3 4 4 4 6 5 1 1 4 8 5 4 2 3 5 8 10 13 11 10 11 10 10 10 9 10 9 8 8 8 9 10 13 16 18 19 20 20 20 19 17 16 14 12 13 15 16 17 16 15 13 12 10 8 7 7 7 7 6 5 5 6 7 8 9 10 9 10 11 13 14 14 14 16 17 19 20 22 24 25 25 25 27 27 28 30 30 30 30 31 31 30 30 30
6 3 5 3 1 1 1 1 2 3 2 7 9 7 5 3 4 8 7 7 13 13 9 9 9 10 10 9 10 9 8 8 8 9 11 14 17 20 22 21 21 21 21 20 20 19 18 19 19 20 18 17 15 14 12 12 10 10 10 9 8 8 7 7 8 9 10 10 11 12 13 13 13 14 15 16 16 17 19 21 22 24 25 25 25 26 26 27 29 29 29 29 30 31 30 30 33
7 3 4 2 3 3 2 3 2 3 5 7 7 7 6 4 5 7 2 2 13 17 15 15 14 11 10 9 9 8 8 9 9 9 10 12 15 17 20 20 20 21 22 22 21 20 20 20 19 20 19 16 15 13 12 11 10 10 9 8 8 8 8 8 9 10 10 11 13 14 14 14 14 14 16 17 17 17 18 20 21 22 24 25 25 25 25 26 27 28 29 30 29 29 30 30 30
8 4 4 4 1 1 1 2 1 3 6 7 4 6 4 2 3 3 4 4 11 11 13 18 17 14 12 10 9 8 8 9 9 9 9 9 11 13 16 18 18 19 20 21 21 19 19 19 18 19 18 16 14 13 12 11 10 10 9 8 8 8 8 8 9 10 10 11 13 14 14 14 15 17 18 18 18 17 18 19 19 20 21 23 24 24 24 25 26 26 27 28 28 28 30 30 30
8 6 5 5 3 2 3 3 1 2 5 6 3 6 4 2 1 6 6 8 11 5 6 11 13 13 12 10 9 9 9 9 8 9 8 8 10 13 15 17 17 17 18 20 20 19 19 18 17 17 17 15 14 13 12 11 10 10 9 8 8 8 8 9 8 10 10 10 12 13 13 13 15 17 19 19 19 18 19 19 19 20 20 21 22 22 23 23 24 24 25 26 27 28 29 30 31
6 5 6 5 5 5 3 4 3 3 4 4 2 2 2 1 1 6 2 8 12 9 8 9 11 11 10 9 10 9 9 8 8 9 9 9 13 15 16 17 17 18 18 19 19 18 18 17 16 16 16 14 14 14 13 12 12 10 9 8 8 8 9 9 9 9 9 9 10 11 12 13 15 17 18 19 19 19 20 20 20 19 18 19 20 21 21 20 21 22 23 24 25 26 27 28 30
4 4 6 4 5 5 2 4 6 4 2 2 3 1 1 1 2 5 6 10 11 11 10 10 11 10 10 9 9 9 9 8 9 9 9 11 14 16 17 17 17 18 19 18 18 17 16 15 15 15 15 14 14 13 13 13 12 10 9 8 8 8 9 9 9 10 10 9 9 10 11 13 15 16 17 18 18 19 19 19 20 18 16 16 17 18 18 18 19 20 21 23 23 23 24 27 28
3 3 5 5 5 7 3 2 3 4 4 1 1 2 0 1 3 6 9 10 10 11 10 8 9 10 10 9 8 8 8 8 9 9 9 11 14 16 17 17 18 19 20 19 17 14 13 13 13 15 15 14 13 13 12 11 10 10 9 9 9 9 10 11 10 10 11 10 10 11 12 14 15 16 17 17 18 19 19 19 19 18 17 15 15 16 16 17 18 19 20 21 22 22 22 26 28
5 5 6 3 4 3 3 2 1 3 4 2 1 4 4 2 1 4 9 10 8 9 9 8 8 8 8 7 8 9 9 9 9 10 10 11 14 16 18 19 19 20 19 18 14 10 8 10 12 15 15 15 13 13 12 11 11 11 11 12 12 12 12 12 12 11 11 11 13 14 15 16 16 16 17 17 18 19 19 18 18 18 17 16 15 15 15 16 17 18 18 18 18 19 20 22 24
4 6 5 4 4 1 1 3 2 2 3 1 0 4 3 1 2 6 12 11 9 9 9 9 8 7 7 7 9 9 9 9 9 9 8 9 13 17 18 19 20 19 18 15 12 9 8 11 14 16 15 14 13 12 12 13 13 14 14 14 14 15 14 14 14 14 13 14 16 16 17 17 17 18 19 19 19 19 19 19 18 18 17 16 16 14 12 13 14 14 14 13 12 13 15 17 18
3 3 3 2 4 4 3 3 3 4 3 1 2 3 3 0 2 8 13 12 12 11 9 8 8 6 6 6 7 8 8 8 7 7 7 9 14 17 19 20 20 19 17 15 13 10 10 14 16 15 15 13 12 12 13 15 15 15 16 15 15 14 14 14 14 13 14 15 16 17 18 19 19 19 20 20 20 20 19 19 19 18 18 16 15 14 12 11 12 11 9 8 8 8 9 12 16
3 3 2 1 2 2 2 2 2 4 4 3 4 2 4 1 1 6 10 10 10 11 10 8 7 7 6 6 6 6 7 7 7 7 7 9 14 18 19 20 19 18 16 12 11 11 13 16 16 15 14 13 12 13 14 15 14 15 16 16 15 14 13 13 13 13 14 14 14 16 17 18 19 20 21 20 21 20 19 19 19 19 18 17 16 15 13 12 11 10 9 7 7 7 8 8 8
6 4 4 4 4 3 3 1 2 2 5 5 5 4 4 2 1 5 10 10 10 12 11 9 8 8 7 5 6 6 6 7 6 6 7 9 13 16 17 17 17 15 13 11 13 15 16 16 15 13 13 12 14 15 15 14 14 15 16 16 16 15 15 14 13 13 14 14 15 15 15 17 19 19 19 20 21 21 20 20 20 19 18 17 16 15 14 12 10 10 10 9 7 6 7 6 4
Wind_Direction
289 290 294 307 324 341 346 70 57 325 95 146 233 263 263 213 258 269 292 281 216 344 341 26 47 80 91 109 122 91 50 65 150 138 160 153 139 154 165 154 150 145 143 145 147 147 149 149 148 149 151 155 155 153 146 138 126 116 117 121 126 130 126 122 122 120 118 115 111 110 110 112 112 112 111 110 109 108 106 103 100 97 96 95 97 96 95 91 89 90 98 108 115 120 117 117 120
291 291 296 307 325 352 311 70 98 301 84 251 253 228 253 360 292 275 308 314 122 121 92 84 79 82 99 121 121 73 47 35 94 106 106 119 123 139 150 149 148 143 141 143 146 147 149 149 149 151 154 159 160 156 149 139 125 115 119 124 129 132 129 126 125 123 121 119 116 113 113 114 115 115 114 113 112 111 106 103 101 98 93 91 90 89 89 82 77 75 84 104 125 131 129 131 127
296 300 311 319 335 41 16 32 119 176 148 215 259 237 253 337 278 284 319 104 138 148 128 95 83 73 87 80 35 51 76 59 91 100 111 123 120 134 145 144 144 140 138 141 145 148 149 150 151 154 158 162 162 157 148 137 123 117 122 127 133 134 132 131 129 126 124 123 120 118 117 117 118 118 118 118 118 115 111 109 107 103 98 96 92 90 87 78 78 74 74 86 118 138 142 141 134
301 311 326 356 25 28 60 64 161 151 172 200 255 233 162 244 261 283 274 171 178 157 132 88 64 17 60 78 58 65 98 105 104 109 118 134 137 142 143 140 139 136 136 141 146 149 150 153 155 158 161 164 161 155 146 135 126 120 127 132 137 138 135 135 133 131 126 125 124 123 121 121 123 122 123 122 121 119 116 114 109 106 102 102 102 101 95 84 84 81 82 83 111 143 150 149 143
306 317 318 40 83 359 110 156 169 154 199 186 241 222 160 225 252 271 266 184 207 151 112 104 86 32 64 80 105 84 113 131 112 107 112 133 142 143 141 139 138 135 137 142 147 151 153 156 158 160 162 164 160 154 146 138 131 126 133 138 141 141 139 139 138 134 128 126 127 127 124 125 127 126 126 124 122 118 115 112 105 100 94 93 96 99 99 94 90 87 91 90 114 145 154 153 149
314 338 2 122 136 228 142 210 215 202 222 179 229 239 164 234 258 262 279 79 73 59 76 93 103 99 75 47 45 76 136 128 107 114 123 136 143 141 139 139 139 137 140 144 149 153 154 159 159 160 161 162 160 154 150 144 138 134 138 142 144 144 143 143 141 136 130 128 128 126 125 127 129 128 125 123 122 119 115 109 101 94 89 86 88 93 98 102 102 97 99 105 123 143 151 150 150
326 357 55 89 312 316 133 208 222 230 240 192 230 253 216 250 264 264 267 86 46 29 73 102 115 101 77 65 52 50 98 117 120 133 135 139 140 137 140 142 141 139 144 148 152 155 156 160 159 160 161 161 161 157 155 149 144 141 144 144 145 146 145 144 142 136 131 129 128 126 128 129 130 127 125 125 125 121 115 107 99 93 88 83 85 89 97 102 102 103 106 114 128 140 147 149 150
347 360 84 102 336 330 142 228 233 215 246 227 235 254 244 247 264 269 246 169 117 91 105 125 113 90 60 75 78 55 86 115 128 135 136 136 136 138 146 146 142 142 149 153 155 157 158 161 159 160 160 161 163 161 159 154 150 149 148 145 144 146 144 142 140 136 132 132 131 130 131 132 133 130 130 131 128 121 112 104 97 90 85 83 85 83 86 92 94 102 112 122 131 140 145 148 146
67 121 359 100 167 288 238 254 255 228 246 247 246 257 253 250 271 274 262 213 119 119 119 157 99 96 97 82 89 77 92 117 128 133 136 136 139 143 149 147 144 147 154 158 158 158 159 160 159 159 161 163 165 164 163 159 156 152 148 145 143 143 139 139 140 138 135 137 137 136 136 136 137 137 137 136 130 122 111 102 93 87 82 81 81 72 76 86 94 106 120 130 136 142 146 146 142
62 167 134 144 149 263 270 265 259 246 245 252 252 258 259 249 265 266 268 168 129 117 97 94 86 109 116 93 91 101 115 126 128 131 136 140 145 148 151 149 146 148 155 159 159 158 156 157 159 160 162 165 167 166 164 160 155 151 149 146 143 141 140 142 144 141 141 143 142 141 140 140 141 140 140 139 132 123 111 98 93 92 83 83 80 69 72 83 96 112 128 137 141 144 146 146 140
25 294 151 170 146 212 245 252 254 260 266 276 260 253 252 239 254 262 259 171 134 129 124 95 90 111 104 95 90 117 129 128 127 130 139 145 150 154 152 149 148 148 154 157 156 155 153 155 160 162 164 167 168 165 161 156 151 151 151 147 143 146 148 148 147 144 144 145 145 145 143 141 143 143 143 143 134 125 111 96 99 107 96 96 89 76 74 83 99 118 136 142 145 147 148 146 140
72 292 103 139 192 203 216 237 257 277 281 281 265 253 230 224 238 246 239 161 137 137 150 123 122 123 100 109 114 123 126 121 128 135 144 150 153 153 149 150 151 152 155 154 151 151 152 155 158 162 165 166 166 163 156 150 149 151 150 149 148 152 154 153 151 149 147 147 149 149 147 147 148 150 151 150 141 131 122 108 115 129 123 115 106 92 81 84 99 121 142 147 148 150 149 147 141
146 224 106 149 205 190 218 239 270 293 286 267 256 255 211 208 221 221 185 105 136 146 159 136 143 130 106 127 123 127 124 122 132 139 149 152 150 148 148 151 150 153 155 152 149 151 154 156 158 159 163 166 165 159 150 145 148 149 149 153 154 157 160 159 156 156 154 151 154 153 153 157 157 159 162 161 153 144 139 134 142 153 149 138 125 110 92 89 100 123 146 153 153 154 152 147 141
172 203 129 213 248 185 229 240 283 292 282 268 263 263 217 200 207 182 111 83 96 133 105 128 135 108 117 139 127 147 133 130 135 143 151 145 141 141 145 149 148 151 153 154 153 153 155 157 159 158 163 164 158 149 142 142 147 150 154 160 161 163 166 163 162 165 164 159 159 161 162 165 163 167 173 173 165 156 160 165 170 176 170 157 144 128 110 99 104 124 148 159 159 159 156 149 144
177 203 131 217 296 291 239 213 260 255 275 272 271 266 200 146 146 123 112 106 84 110 106 129 132 102 151 165 147 164 138 135 141 148 146 132 132 133 138 145 146 148 152 157 156 156 158 159 160 159 162 158 150 144 140 139 145 151 157 165 166 168 170 170 171 170 172 170 170 171 169 168 169 176 182 184 181 173 180 190 193 193 188 175 160 145 128 113 111 123 147 164 165 163 160 155 149
177 176 140 226 250 259 235 203 226 221 270 268 274 294 67 31 52 83 99 114 106 83 97 151 273 122 167 170 144 146 136 138 144 148 139 125 124 125 133 141 141 145 151 158 157 158 161 161 161 159 159 154 148 144 141 139 144 152 156 164 165 169 174 176 179 175 175 178 182 183 177 173 177 187 194 201 205 202 209 209 208 206 203 191 172 161 145 130 119 124 144 164 170 168 164 162 154
186 177 202 233 235 239 218 198 201 206 273 278 298 327 89 51 47 69 45 89 102 85 72 57 26 108 139 133 135 133 132 140 144 146 137 124 120 121 132 137 140 145 151 156 157 160 164 165 162 160 158 155 151 149 148 143 148 159 158 163 165 169 177 181 187 183 180 179 182 190 188 185 187 196 209 223 227 225 229 225 221 215 213 206 189 177 163 147 131 130 143 162 174 173 170 167 157
180 180 198 222 231 230 185 198 238 258 292 293 303 323 119 126 119 109 67 80 93 84 77 77 69 83 108 122 130 128 132 140 144 147 141 129 123 124 133 139 144 147 150 156 159 164 167 167 163 161 158 156 156 155 154 150 159 170 164 166 165 167 176 184 190 190 190 189 189 195 197 200 201 209 224 233 235 235 238 236 228 221 219 215 203 193 181 169 152 142 146 161 174 176 174 169 158
173 168 188 223 222 232 214 253 281 295 292 296 304 309 134 155 155 137 107 107 103 93 88 95 93 96 108 123 130 129 134 141 148 149 145 140 135 134 137 144 148 148 153 158 163 168 169 167 163 161 160 160 162 160 159 159 169 176 172 171 165 164 172 178 182 184 188 193 196 196 196 201 198 201 215 221 224 229 240 243 232 224 222 220 213 204 195 187 173 161 156 164 171 172 171 166 158
194 174 208 237 243 294 271 275 285 284 285 292 299 316 74 153 157 125 123 115 106 115 126 118 119 126 126 131 134 135 138 143 151 151 150 144 139 141 144 151 155 153 155 159 163 168 168 165 162 162 163 162 162 163 165 169 174 177 175 174 170 168 170 171 173 175 175 178 187 187 183 184 181 185 198 207 216 219 229 272 249 229 223 222 218 212 204 197 190 180 169 169 170 168 168 165 162
213 186 210 237 296 298 266 269 286 289 291 275 280 340 14 347 127 130 127 110 102 143 150 141 140 140 139 141 141 140 140 144 151 155 153 140 137 144 147 156 160 157 153 155 160 164 166 165 164 165 165 163 161 163 168 173 175 175 175 177 177 174 172 171 173 174 170 167 176 181 181 182 187 208 223 223 226 228 236 274 278 243 229 225 222 218 211 204 202 195 185 179 175 170 169 168 165
257 237 223 230 240 273 267 270 279 280 296 295 313 11 343 321 108 141 140 131 161 165 155 145 141 142 143 144 144 144 142 146 154 162 157 138 138 142 144 155 161 159 153 152 157 162 167 168 168 168 169 169 163 163 169 174 174 174 174 178 182 180 178 176 178 179 174 175 182 189 195 200 206 224 241 241 237 235 236 248 265 264 249 234 227 225 219 211 207 204 201 193 185 181 178 176 176
240 270 251 234 233 247 261 270 266 263 307 333 311 7 341 17 79 142 126 113 128 131 139 135 134 137 138 139 141 144 145 149 155 166 164 145 142 145 146 155 163 163 157 154 157 163 169 172 174 172 173 174 168 168 173 174 175 174 173 177 183 183 182 183 186 187 189 198 202 201 207 214 217 220 234 244 243 238 235 236 244 257 265 251 234 231 228 222 215 213 213 207 201 197 191 189 196
215 254 253 239 233 235 249 254 273 280 306 299 298 19 1 54 76 71 87 100 112 117 128 127 128 133 134 138 140 143 146 147 154 167 167 148 144 150 151 157 164 165 160 157 159 165 172 175 177 176 176 178 173 174 177 174 173 173 174 176 181 184 186 189 193 195 203 213 219 218 218 223 225 224 228 237 241 239 239 240 241 243 253 257 240 232 231 231 227 224 222 218 217 215 211 211 216
218 233 242 240 227 232 243 232 251 268 289 300 343 32 16 93 93 85 102 114 119 123 129 128 130 134 138 143 141 142 143 139 148 161 158 143 144 149 153 157 161 166 165 162 162 167 173 176 178 178 179 181 177 177 179 175 173 177 180 180 181 188 192 195 200 206 211 215 222 228 229 232 234 233 232 234 237 238 242 248 251 248 247 251 245 235 232 233 233 233 233 229 227 227 230 232 231
221 217 230 236 229 232 225 202 226 232 242 306 321 35 92 104 86 73 103 121 125 129 131 132 134 135 138 138 137 138 136 136 149 160 153 144 143 144 149 155 159 167 169 167 166 168 174 177 179 181 181 182 180 179 182 181 181 184 188 189 188 194 201 205 211 218 222 222 224 230 234 238 240 242 241 239 237 236 240 246 251 252 253 252 249 244 239 237 236 238 239 237 237 237 238 238 239
247 239 240 241 242 243 198 179 233 245 263 282 282 306 124 132 90 90 131 132 131 130 130 136 133 129 127 127 130 132 132 143 152 151 140 131 132 135 146 158 163 168 171 170 171 171 174 178 182 185 186 187 186 185 189 189 189 191 195 199 201 204 210 217 223 227 230 232 235 238 240 242 245 248 248 248 245 241 240 243 246 248 251 254 254 252 248 244 242 243 244 242 244 247 246 243 244
268 263 269 267 258 260 222 202 237 236 274 187 232 310 107 120 121 143 156 144 137 132 133 137 129 123 124 124 125 127 130 140 141 133 124 129 141 149 158 167 170 169 172 173 173 175 176 179 184 187 188 189 191 192 195 195 195 198 202 207 213 216 219 225 231 236 238 238 242 245 246 246 249 252 253 254 253 250 245 243 245 246 248 252 255 255 252 247 246 247 246 244 246 252 254 250 249
276 237 237 281 285 266 237 221 219 184 233 189 109 333 318 93 142 152 150 145 139 132 134 134 126 123 123 122 121 119 118 120 122 120 127 143 156 162 166 172 173 171 173 174 174 176 179 182 184 184 184 186 192 197 199 199 200 203 209 215 221 224 227 232 238 245 247 246 247 248 251 253 252 255 257 258 258 258 256 252 251 251 252 252 254 256 252 246 245 246 246 245 248 255 257 252 251
301 251 173 287 334 289 246 201 169 168 219 187 113 304 284 310 152 153 145 145 139 132 136 131 123 122 120 120 117 110 107 110 117 124 136 150 157 162 165 167 169 169 170 171 173 175 176 181 182 181 181 183 189 195 199 199 203 207 212 218 222 228 232 238 245 250 252 252 253 253 257 261 260 261 264 264 262 262 263 264 262 261 262 260 257 256 254 248 244 245 246 246 253 260 259 252 249
304 296 318 79 359 280 277 226 145 167 219 164 124 203 258 283 162 157 149 149 142 137 140 130 123 123 122 122 118 112 108 117 127 134 145 155 156 154 156 160 165 167 167 169 171 172 173 177 181 181 180 185 189 193 198 200 207 212 215 219 222 228 233 240 247 251 257 262 263 262 266 270 273 275 277 275 271 270 271 271 269 267 269 269 265 260 257 253 247 245 246 248 253 256 251 247 247
326 284 305 350 165 262 294 289 148 171 232 145 135 205 256 244 169 160 154 151 141 138 139 131 128 127 126 122 118 117 113 118 126 138 151 157 153 147 150 158 165 169 168 169 171 170 173 176 179 180 179 187 193 195 201 204 212 217 222 229 233 238 240 245 251 256 265 268 268 269 271 276 283 288 289 286 282 281 280 277 275 274 271 267 267 265 259 255 253 249 247 247 251 254 249 239 233
354 148 249 248 178 239 297 301 191 185 213 151 161 200 251 221 171 162 157 154 142 138 139 133 132 131 129 125 123 123 120 120 122 136 145 145 147 148 153 156 159 175 175 170 170 169 173 176 177 180 182 190 194 195 201 207 217 225 232 239 243 247 249 254 257 259 262 262 265 273 283 291 293 293 290 287 286 286 285 281 278 277 271 264 263 266 262 257 257 256 253 252 253 259 262 254 242
315 21 224 233 189 191 220 289 273 194 202 215 193 203 231 184 165 164 160 157 146 141 142 136 137 135 131 131 132 132 131 137 142 144 144 145 153 155 159 156 152 177 186 171 167 168 171 176 177 182 186 192 195 196 202 210 221 232 238 241 246 252 256 261 263 263 261 260 269 282 296 303 300 296 292 288 287 288 289 287 282 277 269 262 259 262 262 260 260 261 261 259 256 256 260 266 264
232 207 194 258 226 207 211 249 263 187 204 227 194 218 236 157 157 164 162 164 152 146 145 139 142 138 136 137 136 140 141 147 157 155 153 154 155 153 158 157 151 171 188 174 168 169 170 176 179 184 187 189 194 198 202 211 222 232 240 244 251 259 263 265 267 268 269 270 282 299 309 310 306 300 295 289 287 287 290 290 288 286 278 268 262 261 262 261 261 262 264 265 264 263 260 254 250
200 195 178 220 226 244 224 231 248 187 195 226 193 218 228 158 159 162 159 169 155 145 140 136 144 139 136 139 138 145 145 151 159 157 157 155 152 151 157 161 154 167 181 172 169 171 170 174 177 179 180 179 185 192 197 201 209 221 234 243 255 267 271 274 275 276 279 283 295 314 318 310 302 295 291 289 290 292 292 291 289 287 282 275 269 267 266 265 263 263 264 264 263 258 250 242 234
208 219 225 238 231 252 237 233 254 199 184 230 206 217 229 164 162 158 146 165 154 141 140 143 148 142 139 137 134 141 142 148 151 150 154 151 149 149 154 160 157 164 171 168 168 170 168 169 169 166 166 172 177 184 190 193 200 212 226 241 264 286 290 293 292 290 292 296 305 310 302 291 285 285 286 287 290 293 294 293 290 286 280 274 270 269 268 268 265 261 261 261 259 252 245 243 238
232 228 268 282 249 254 259 249 256 209 188 232 201 210 239 182 160 158 142 152 162 148 147 152 148 141 138 131 129 133 131 133 136 137 146 149 147 143 146 154 150 147 160 168 168 166 166 163 160 158 161 172 177 179 185 192 203 214 226 245 277 300 309 313 313 316 313 312 311 295 284 280 282 286 288 288 286 287 289 289 287 284 280 275 273 271 269 268 264 259 257 256 255 253 254 254 246
233 221 268 280 252 274 283 268 261 214 196 231 188 197 235 194 155 164 151 156 176 166 160 157 150 144 140 136 134 135 135 138 140 136 143 148 140 131 136 146 138 125 139 176 172 162 162 159 156 157 157 165 171 175 182 184 195 206 224 258 292 303 311 315 317 323 319 318 315 294 287 287 287 290 291 289 284 281 281 282 281 280 278 277 276 275 272 270 267 261 256 254 253 251 252 251 245
223 207 231 257 244 262 277 280 268 217 196 194 167 194 241 154 120 167 161 159 169 167 156 143 142 144 143 142 140 143 146 147 145 142 147 150 139 131 133 137 138 134 140 189 191 163 156 154 153 157 156 158 163 173 183 184 207 237 259 285 306 308 310 310 306 306 305 310 308 295 294 292 287 288 289 287 284 281 278 277 276 276 275 274 273 273 272 270 269 266 260 255 253 248 247 245 241
233 204 218 242 238 215 226 273 295 243 219 124 127 171 268 73 124 164 166 148 144 136 123 110 114 132 134 134 134 138 144 145 147 150 157 152 141 137 136 139 148 141 146 194 202 164 151 150 152 157 158 158 159 170 187 208 268 290 296 307 330 336 333 328 319 315 316 319 311 301 301 298 291 290 290 288 285 283 281 278 275 274 274 273 271 270 270 271 270 268 263 258 253 249 248 247 241
251 221 223 231 230 234 242 277 320 288 252 228 132 151 268 293 137 153 144 118 120 120 127 128 127 133 133 130 130 129 130 139 147 150 149 137 132 138 145 153 151 137 151 192 191 155 147 150 152 156 155 155 157 149 150 207 289 288 274 274 311 332 331 331 329 328 331 334 325 316 319 317 308 303 305 303 293 286 283 282 278 274 272 271 270 270 269 270 271 270 266 260 254 251 250 249 245
244 230 220 222 219 234 250 264 284 224 242 236 163 165 237 308 148 157 146 126 125 129 136 141 139 139 139 134 133 133 132 139 143 140 133 122 126 136 147 152 143 131 141 154 140 126 130 138 145 153 154 157 165 162 163 191 214 220 234 246 258 275 302 320 326 326 329 337 336 327 329 335 330 322 321 318 306 295 291 289 286 279 272 268 269 271 271 270 271 271 269 264 257 254 249 245 246
235 226 192 196 203 218 236 243 239 222 245 287 193 168 128 148 205 170 143 130 134 145 146 148 144 142 145 140 138 140 143 145 141 134 124 119 123 127 132 134 131 127 125 121 112 108 111 115 121 129 130 132 138 147 162 177 187 197 204 221 257 273 301 325 331 331 333 339 344 341 338 341 340 334 327 319 310 303 299 297 295 289 280 275 273 273 272 271 270 270 268 263 258 255 248 243 245
240 221 171 177 187 208 227 225 239 238 196 284 236 173 110 178 211 152 138 136 146 158 157 154 151 152 151 143 140 141 143 141 135 131 123 120 120 119 118 118 116 114 110 106 103 104 106 106 105 105 103 101 100 101 105 102 96 87 80 65 39 6 339 332 332 336 343 347 350 353 351 348 344 338 330 319 309 303 299 296 296 292 287 283 278 276 273 268 266 265 262 258 254 251 247 243 243
238 210 194 188 154 196 224 205 223 307 62 240 225 176 115 166 176 142 146 153 157 162 162 156 153 160 158 146 144 143 137 133 127 123 118 116 116 114 111 108 105 104 102 101 99 96 97 95 94 93 91 92 93 92 93 89 84 80 74 65 53 41 23 7 356 355 358 358 357 1 358 351 343 335 328 318 309 303 298 294 292 289 288 285 280 278 276 269 264 262 261 258 254 252 249 244 243
232 202 221 236 79 5 284 205 136 85 293 251 221 191 138 140 208 174 165 174 162 154 154 157 159 163 157 145 144 141 132 128 120 114 108 105 106 106 105 101 99 100 100 98 94 89 89 88 89 86 82 84 86 86 88 84 79 75 70 66 58 50 45 36 25 14 9 6 3 0 354 347 339 331 324 318 311 305 300 295 292 290 289 286 281 280 279 275 270 267 265 261 255 251 248 245 244
225 202 190 204 320 328 345 335 49 125 248 259 223 193 143 134 210 195 194 195 165 160 161 164 166 161 150 142 139 134 127 122 117 114 108 103 100 97 98 95 94 98 99 97 95 90 86 85 84 80 74 75 77 77 78 75 72 68 60 56 51 44 40 35 26 16 11 7 2 358 352 344 336 328 323 319 317 314 308 302 298 295 290 286 284 282 282 281 278 274 268 263 257 252 247 244 241
216 201 151 145 261 282 194 255 236 174 241 256 192 165 160 168 196 245 296 205 175 174 167 164 160 149 145 142 135 128 125 123 118 114 111 107 100 96 95 93 91 93 94 95 95 91 85 81 79 76 70 68 67 66 66 63 62 57 50 45 40 37 33 28 20 13 11 6 2 358 352 343 334 329 326 323 322 320 314 309 307 301 294 290 287 285 282 280 278 275 272 268 264 257 251 247 244
203 192 156 153 162 162 198 228 223 191 240 262 198 164 209 258 44 331 295 181 158 132 133 149 143 134 137 136 128 124 120 118 116 112 109 104 102 101 97 94 92 89 88 90 91 89 85 79 74 73 71 67 63 59 56 57 56 51 45 38 33 33 27 22 18 15 15 10 2 357 349 340 332 329 329 326 325 323 319 317 314 307 302 297 292 288 283 279 277 274 272 270 266 261 257 253 251
203 171 134 154 164 153 191 201 174 203 230 290 345 150 213 247 13 334 329 136 126 112 113 122 121 121 127 124 121 121 115 114 113 106 105 102 101 101 98 96 95 90 86 85 82 82 81 77 74 74 72 68 61 58 57 58 57 51 44 38 33 33 27 23 23 19 18 14 3 353 344 339 335 333 331 329 329 329 325 323 319 314 309 304 299 295 286 277 276 274 271 268 265 263 260 255 253
216 141 126 178 181 147 151 187 174 173 193 325 3 50 335 49 46 31 75 100 109 122 126 126 130 130 128 125 123 121 118 116 112 107 105 103 101 100 98 97 94 89 87 83 78 75 73 73 74 72 68 64 61 64 66 63 56 48 42 38 33 33 34 31 30 27 24 18 6 354 347 347 346 342 339 337 337 336 332 329 325 322 318 312 309 305 295 282 276 275 273 270 266 266 263 257 252
184 156 174 195 163 131 117 202 193 112 120 267 325 109 109 104 62 52 78 88 96 115 121 124 132 132 128 127 126 124 122 119 115 114 111 108 107 103 99 99 96 92 89 86 79 70 67 69 73 74 71 68 67 67 67 60 52 46 45 46 46 43 42 36 34 33 27 18 12 4 358 356 355 351 348 347 346 345 344 340 335 334 331 327 321 313 305 296 286 279 276 273 271 270 267 260 252
154 202 205 159 121 107 99 153 309 60 122 267 299 147 169 171 116 75 91 93 99 114 118 119 122 127 126 125 127 124 122 120 115 114 113 112 109 102 99 99 96 93 90 86 77 68 73 78 81 84 79 73 69 65 66 64 57 56 56 57 58 54 50 45 41 40 34 28 22 14 5 1 2 1 359 357 355 353 352 350 347 346 344 341 335 324 311 301 293 286 280 279 279 275 269 261 251
150 189 180 135 149 191 102 157 198 148 148 310 86 168 187 181 164 148 134 133 135 127 124 128 128 127 126 127 130 125 119 116 111 111 112 109 105 101 101 98 93 89 88 88 88 89 96 93 88 87 79 71 69 68 72 70 63 63 62 61 61 59 58 53 47 43 39 35 28 19 13 12 14 14 9 6 4 1 2 4 3 1 358 356 352 341 324 310 304 299 291 287 288 282 271 267 261
82 139 159 137 157 165 164 162 159 157 161 130 133 190 240 313 185 174 159 151 146 138 133 130 126 123 124 128 128 120 115 113 109 110 107 102 102 101 100 97 92 90 91 97 103 98 95 94 89 82 74 71 74 75 75 71 65 63 62 63 61 60 60 55 47 41 37 36 31 23 21 23 24 22 18 14 13 13 15 18 16 14 12 9 4 357 347 335 330 329 325 315 314 311 300 294 285
107 139 192 174 112 131 155 158 134 136 145 140 133 210 257 229 175 176 157 141 136 137 132 126 123 119 116 116 114 110 109 109 107 107 103 98 99 99 98 97 96 96 97 98 96 92 96 97 89 80 78 80 80 78 74 69 64 59 58 60 57 54 53 49 42 37 35 35 32 26 25 28 28 28 25 20 18 20 22 21 18 18 19 17 13 10 0 350 348 352 359 353 334 331 333 328 310
155 161 189 168 131 118 128 242 282 116 130 154 153 184 243 243 195 168 153 144 141 137 131 128 128 124 118 111 107 107 107 106 105 103 98 96 99 100 99 102 106 107 104 97 93 97 101 99 93 90 87 83 80 78 73 67 63 60 59 59 55 48 42 37 35 33 31 34 35 31 31 33 31 32 31 25 22 23 24 24 22 21 23 23 23 21 12 5 6 8 13 13 355 344 347 355 26